Regional Weather Roundup
Issued by NWS

Home | Current Version | Previous Version | Text Only | Print | Product List | Glossary Off
Versions: 1 2 3 4 5 6 7 8 9 10 11 12 13 14 15 16 17 18 19 20 21 22 23 24 25 26 27 28 29 30 31 32 33 34 35 36 37 38 39 40 41 42 43 44 45 46 47 48 49 50

000
ASUS43 KFSD 221302
RWRSD

WEATHER ROUNDUP FOR SOUTH DAKOTA
NATIONAL WEATHER SERVICE SIOUX FALLS SD
800 AM CDT FRI MAY 22 2015

NOTE: "FAIR" INDICATES FEW OR NO CLOUDS BELOW 12,000 FEET WITH NO
SIGNIFICANT WEATHER AND/OR OBSTRUCTIONS TO VISIBILITY.


SDZ001>005-009-010-012>017-221400-
NORTHWEST AND NORTH CENTRAL SOUTH DAKOTA

CITY           SKY/WX    TMP DP  RH WIND       PRES   REMARKS
BUFFALO          N/A     48  36  63 E9        30.04R
FAITH            N/A     50  35  56 SE9       30.12F
MOBRIDGE       MOSUNNY   51  45  79 CALM      30.14S
$$

SDZ012>016-024>037-041>051-057-063-072>074-221400-
SOUTHWEST AND SOUTH CENTRAL SOUTH DAKOTA

CITY           SKY/WX    TMP DP  RH WIND       PRES   REMARKS
RAPID CTY ARPT CLOUDY    52  46  80 SE10      30.09S
PIERRE         MOSUNNY   48  41  76 E3        30.15S
CUSTER         CLOUDY    45  40  82 SE7       30.10S
ELLSWORTH AFB  CLOUDY    51  47  84 SE8       30.09S
PHILIP         MOSUNNY   48  41  76 E5        30.13S
PINE RIDGE     CLOUDY    52  42  69 SE15      30.10R
WINNER         FAIR      52  41  66 CALM      30.17R
$$

SDZ004>011-016>023-039-040-221400-
NORTHEAST SOUTH DAKOTA

CITY           SKY/WX    TMP DP  RH WIND       PRES   REMARKS
ABERDEEN       SUNNY     54  42  64 SE3       30.18R
WATERTOWN      SUNNY     52  43  71 CALM      30.19S
BROOKINGS      SUNNY     48  43  81 CALM      30.22R
$$

SDZ017-020-022-023-036>040-048>070-221400-
SOUTHEAST SOUTH DAKOTA

CITY           SKY/WX    TMP DP  RH WIND       PRES   REMARKS
SIOUX FALLS    MOSUNNY   53  44  71 CALM      30.20R
HURON          SUNNY     52  42  69 SE3       30.19R
CHAMBERLAIN    SUNNY     50  42  75 CALM      30.17S
MITCHELL       SUNNY     52  44  74 S6        30.20R
YANKTON        SUNNY     50  43  76 CALM      30.20R
$$

ABBREVIATIONS USED IN REMARKS
   TC - TEMPERATURE IN CELSIUS
  WCI - WIND CHILL INDEX
   HX - HEAT INDEX
  VSB - VISIBILITY



USA.gov is the U.S. government's official web portal to all federal, state and local government web resources and services.